Content
SEND FEEDBACK

Daily
Averages
Monthly
Summary
United States of America

WILMINGTON, NORTH CAROLINA


Home > North America > United States > North Carolina
Elevation: 72 feet     Latitude: 34 16N     Longitude: 077 54W

WEATHER
 
SELECT A DAY
Number of Records: 208,961;   Date Range: 1/1/95 - 8/28/14
 
SHARE

PRINT THIS DATA

[ ← Previous Day ]
WEATHER ALMANAC - MARCH 14, 2014
[ Next Day → ]
[ °C ]   °F
Weather ElementAverageHighLow
Temperature45.9 °F60.1 °F (2:53 pm)27 °F (6:53 am)
Dewpoint25.7 °F43 °F (11:53 pm)15.1 °F (11:53 am)
Humidity51.3 %82 % (2:53 am)21 % (2:53 pm)
Barometer30.28 in30.37 in (9:53 am)30.16 in (11:53 pm)
Wind Speed6.1 mph18.4 mph (5:53 pm)
Wind Gust26.5 mph (5:53 pm)
Weather ElementAverage
Visibility10 mi
Wind DirectionESE (108.3 °)

Weather ElementTotal
Precipitation---
Heating Degree Days21.5 (Base 65)
Averaged from 23 records on March 14, 2014
WEATHER CONDITIONS BREAKOUT
WIND DIRECTION BREAKOUT
WEATHER BY HOUR - MARCH 14, 2014
[ °C ]   °F
Local TimeTemperatureDewpointHumidityBarometerVisibilityWind DirectionWind SpeedGust SpeedPrecipitationEventsConditions
1:53 AM30.9 °F25.0 °F79 %30.27 in10.0 miCalmClear
2:53 AM28.9 °F24.1 °F82 %30.28 in10.0 miCalmClear
3:53 AM28.0 °F23.0 °F81 %30.27 in10.0 miCalmClear
4:53 AM28.9 °F24.1 °F82 %30.28 in10.0 miCalmClear
5:53 AM28.9 °F21.9 °F75 %30.30 in10.0 miCalmClear
6:53 AM27.0 °F21.9 °F81 %30.31 in10.0 miCalmClear
7:53 AM30.0 °F21.9 °F72 %30.33 in10.0 miCalmClear
8:53 AM39.0 °F28.0 °F65 %30.35 in10.0 miCalmClear
9:53 AM48.0 °F21.0 °F34 %30.37 in10.0 miESE (120°)6.9 mphClear
10:53 AM52.0 °F19.0 °F27 %30.37 in10.0 miVariable5.8 mphClear
11:53 AM54.0 °F15.1 °F22 %30.37 in10.0 miSE (130°)8.1 mphClear
12:53 PM55.0 °F19.9 °F25 %30.36 in10.0 miSouth (170°)6.9 mph16.1 mphClear
1:53 PM57.9 °F23.0 °F26 %30.33 in10.0 miSE (140°)10.4 mphClear
2:53 PM60.1 °F19.9 °F21 %30.30 in10.0 miSSW (200°)12.7 mph18.4 mphClear
3:53 PM59.0 °F21.0 °F23 %30.27 in10.0 miSSW (200°)15.0 mph23.0 mphClear
4:53 PM59.0 °F23.0 °F25 %30.25 in10.0 miSW (220°)17.3 mphClear
5:53 PM57.9 °F26.1 °F30 %30.22 in10.0 miSouth (190°)18.4 mph26.5 mphClear
6:53 PM55.9 °F28.9 °F36 %30.22 in10.0 miSSW (200°)8.1 mphClear
7:53 PM52.0 °F30.9 °F45 %30.21 in10.0 miSouth (190°)6.9 mphClear
8:53 PM50.0 °F33.1 °F52 %30.21 in10.0 miSouth (180°)5.8 mphClear
9:53 PM50.0 °F37.0 °F61 %30.21 in10.0 miSouth (180°)5.8 mphClear
10:53 PM52.0 °F41.0 °F66 %30.18 in10.0 miSouth (190°)6.9 mphClear
11:53 PM52.0 °F43.0 °F71 %30.16 in10.0 miSouth (180°)5.8 mphClear
Hourly data recorded from KILM, located miles away from Wilmington, North Carolina







STORIES FROM OUR PARTNERS